Location: ??????
(41.3164°N, 22.6615°E)
Time: 14:16:54
(UTC+00:00)

H-2A R/B - Pass Details

Date: 22 May 2022
Orbit: 576 x 653 km, 98.5° (Epoch: 30 June)

Event Time Altitude Azimuth Distance (km) Brightness Sun altitude
Rises 19:39:28 0° 357° (N) 2,802 6.3 -17.1°
Reaches altitude 10° 19:42:07 10° 339° (NNW) 1,895 5.7 -17.4°
Maximum altitude 19:44:58 19° 295° (WNW) 1,416 4.7 -17.8°
Drops below altitude 10° 19:47:49 10° 250° (WSW) 1,887 4.8 -18.1°
Sets 19:50:27 0° 232° (SW) 2,786 5.4 -18.4°
